User: anonymous   Login
Location: Melbourne
(37.8170°S, 144.9670°E)
Time: 06:54:11
(UTC+10:00)
Language:

Explorer 11/Cluster Stage 4 - Orbit

View from above orbital plane
View from above orbital plane
View from above satellite
View from above satellite

Ground track
Ground track

The orbit data is extracted from the following two-line orbital elements,

1   107U 61013A   17201.97536660 +.00000726 +00000-0 +80176-4 0  9993
2   107 028.7874 059.4694 0549171 104.2506 261.9666 14.08338670816289
Epoch (UTC): 20 July 2017 23:24:31
Eccentricity: 0.0549171
inclination: 28.7874°
perigee height: 467 km
apogee height: 1263 km
right ascension of ascending node: 59.4694°
argument of perigee: 104.2506°
revolutions per day: 14.08338670
mean anomaly at epoch: 261.9666°
orbit number at epoch: 81628

The dashed part of the orbit path shows where the satellite is in the earth's shadow,  

DLR